#timestamp,LO_Frequency,Hit,StdDev 
1564174815.9,286046993.3,N
1564174835.7,286046996.0,N
1564174855.6,286046995.1,N
1564174875.4,286046993.3,Y
1564174895.2,286046999.0,P
1564174915.1,286046996.9,N
1564174916.0,286046996.9,N
1564174935.8,286046996.7,N
1564174955.7,286046996.9,N
1564174975.5,286046997.6,N
1564174995.3,286046996.9,Y
1564175015.2,286047002.3,P
1564175035.0,286047002.1,N
1564175035.9,286047002.1,N
1564175055.7,286047001.8,N
1564175075.6,286047002.6,N
1564175095.4,286047000.1,N
1564175115.3,286046998.5,N
1564175135.1,286046998.8,N
1564175136.0,286046998.8,N
1564175155.8,286046999.4,N
1564175175.7,286046999.3,N
1564175195.5,286046996.7,N
1564175215.3,286046996.6,N
1564175235.2,286046997.7,N
1564175255.0,286046996.6,N
1564175255.9,286046996.6,N
1564175275.8,286046997.2,N
1564175295.6,286046994.9,N
1564175315.4,286046997.6,N
1564175335.3,286046995.4,N
1564175355.1,286046997.9,N
1564175375.9,286046995.2,N
1564175395.7,286046995.5,N
1564175415.5,286046995.4,N
1564175435.4,286046997.5,N
1564175485.2,286046998.0,E
1564175495.2,286046996.8,N
1564175515.9,286046998.3,P
1564175535.7,286046999.4,N
1564175555.6,286046999.1,N
1564175575.4,286046999.5,N
1564175595.3,286046999.2,N
1564175615.1,286046996.7,Y
1564175616.0,286046996.7,P
1564175635.8,286047001.2,N
1564175655.7,286047002.4,N
1564175675.5,286047002.8,N
1564175695.3,286047000.0,N
1564175715.2,286046999.7,N
1564175735.0,286046999.9,N
1564175735.9,286046999.9,N
1564175755.8,286047000.4,N
1564175775.6,286047001.0,N
1564175795.4,286046998.5,N
1564175815.3,286046998.6,N
1564175835.1,286047001.2,N
1564175855.9,286047001.0,N
1564175875.7,286047000.9,N
1564175895.5,286046998.3,N
1564175915.4,286047000.9,N
1564175935.2,286047000.9,N
1564175955.0,286047000.2,N
1564175955.9,286047000.2,N
1564175975.8,286047000.2,N
1564175995.6,286046999.9,N
1564176015.5,286046999.8,N
1564176035.3,286047000.9,N
1564176055.1,286046998.2,N
1564176075.9,286047000.9,N
1564176095.7,286047000.8,N
1564176115.5,286047000.2,N
1564176135.4,286047000.0,N
1564176155.2,286047000.9,N
1564176175.1,286047001.0,N
1564176176.0,286047001.0,N
1564176195.8,286047000.8,N
1564176215.6,286047000.5,N
1564176235.5,286047000.4,N
1564176255.3,286047000.4,N
1564176275.2,286047000.3,N
1564176295.9,286047000.3,N
1564176315.7,286047000.8,N
1564176335.6,286047000.2,N
1564176355.4,286047000.3,N
1564176375.2,286047000.3,N
1564176395.1,286046999.8,N
1564176396.0,286046999.8,N
1564176415.8,286047000.2,N
1564176435.7,286047000.8,N
1564176455.5,286047000.3,N
1564176475.3,286046999.9,N
1564176495.2,286047000.0,N
1564176515.0,286047002.7,Y
1564176515.9,286047002.7,P
1564176535.8,286047002.1,N
1564176555.6,286047003.6,P
1564176575.4,286047002.9,N
1564176595.3,286047004.2,Y
1564176615.1,286047001.4,P
1564176635.8,286047004.1,P
1564176655.7,286047003.3,N
1564176675.5,286047003.5,Y
1564176695.4,286047002.3,P
1564176715.2,286047002.4,P
1564176735.0,286047001.3,P
1564176735.9,286047001.3,N
1564176755.8,286047001.9,Y
1564176775.6,286046998.5,P
1564176795.5,286047000.7,N
1564176815.3,286046999.8,N
1564176835.1,286047002.2,N
1564176855.9,286047004.1,N
1564176875.7,286047004.2,N
1564176895.5,286047004.1,N
1564176915.4,286047003.5,N
1564176935.2,286047001.3,N
1564176955.0,286047001.4,N
1564176956.0,286047001.4,N
1564176975.8,286047003.1,N
1564176995.6,286047003.4,N
1564177015.5,286047003.1,N
1564177035.3,286047003.2,N
1564177055.1,286047001.3,N
1564177075.9,286047004.0,N
1564177095.7,286047001.4,N
1564177115.6,286047001.3,N
1564177135.4,286047002.0,N
1564177155.2,286047002.4,N
1564177175.1,286047000.5,N
1564177176.0,286047000.5,N
1564177195.8,286047001.0,N
1564177215.6,286046998.1,N
1564177235.5,286046998.4,N
1564177255.3,286046996.9,N
1564177275.2,286046997.8,N
1564177295.9,286046996.9,N
1564177315.7,286046998.3,N
1564177335.6,286047000.8,N
1564177355.4,286047001.0,N
1564177375.2,286046999.8,N
1564177395.1,286047002.2,N
1564177396.0,286047002.2,N
1564177415.8,286047002.6,N
1564177435.7,286047002.6,N
1564177455.5,286047002.2,N
1564177475.3,286047001.3,N
1564177495.2,286047004.0,N
1564177515.0,286047002.4,N
1564177515.9,286047002.4,N
1564177535.8,286046999.8,N
1564177555.6,286046999.7,N
1564177575.4,286046999.8,N
1564177595.3,286047002.6,N
1564177615.1,286047002.3,N
1564177635.8,286047002.6,N
1564177655.7,286046999.7,N
1564177675.5,286047000.3,N
1564177695.4,286047000.3,N
1564177715.2,286047001.1,N
1564177735.0,286046998.5,N
1564177735.9,286046998.5,N
1564177755.8,286046998.9,N
1564177775.6,286046999.2,N
1564177795.5,286046998.4,N
1564177815.3,286046998.6,N
1564177835.1,286047000.7,N
1564177855.9,286046998.1,N
1564177875.7,286047000.3,N
1564177895.5,286046998.1,N
1564177915.4,286046998.4,N
1564177935.2,286047001.2,N
1564177955.0,286046999.0,N
1564177956.0,286046999.0,N
1564177975.8,286046999.6,N
1564177995.6,286046998.4,N
1564178015.5,286046999.1,N
1564178035.3,286046998.3,N
1564178055.1,286046998.5,N
1564178075.9,286046996.5,N
1564178095.7,286046996.8,N
1564178115.6,286046997.0,N
1564178135.4,286046997.3,N
1564178155.2,286046996.9,N
1564178175.1,286046997.4,N
1564178176.0,286046997.4,N
1564178195.8,286046996.5,N
1564178215.6,286046997.7,N
1564178235.5,286046995.3,Y
1564178255.3,286046998.6,P
1564178275.2,286046998.7,P
1564178295.9,286047000.9,P
1564178315.7,286047000.6,N
1564178335.6,286046998.6,N
1564178355.4,286047000.8,N
1564178375.2,286046998.2,N
1564178395.1,286046998.2,N
1564178396.0,286046998.2,N
